Location: *
(46.4000°N, 12.6667°E)
Time: 19:36:56
(UTC+00:00)

ISS - Visible Passes

Search period start: 07 March 2021 00:00
Search period end: 17 March 2021 00:00
Orbit: 417 x 422 km, 51.6° (Epoch: 07 March)

Date Brightness Start Highest point End Pass type
(mag) Time Alt. Az. Time Alt. Az. Time Alt. Az.
07 Mar -2.9 03:58:45 31° NW 03:59:56 45° NNE 04:03:12 10° E visible
08 Mar -2.0 03:13:11 31° NE 03:13:11 31° NE 03:15:32 10° E visible
08 Mar -3.7 04:46:09 11° WNW 04:49:20 67° SSW 04:52:40 10° SE visible
09 Mar -0.2 02:27:42 11° ENE 02:27:42 11° ENE 02:27:51 10° ENE visible
09 Mar -3.8 04:00:40 37° WNW 04:01:51 83° NNE 04:05:13 10° ESE visible
10 Mar -2.4 03:15:16 40° E 03:15:16 40° E 03:17:39 10° ESE visible
10 Mar -2.6 04:48:15 11° W 04:50:59 27° SW 04:53:52 10° SSE visible
11 Mar -0.3 02:30:00 10° E 02:30:00 10° E 02:30:01 10° E visible
11 Mar -3.3 04:02:59 38° WSW 04:03:35 43° SW 04:06:47 10° SE visible
12 Mar -2.0 03:17:52 26° SE 03:17:52 26° SE 03:19:29 10° SE visible
12 Mar -1.5 04:51:20 10° WSW 04:52:24 11° SW 04:53:28 10° SSW visible
13 Mar -1.9 04:05:55 16° SSW 04:05:55 16° SSW 04:07:27 10° S visible
